This is the latest recevied weather packets stored in our database for station/object WY1B. If no packets are shown the sender has not sent any weather packets the latest 10 day(s).
| Time | Temp. | Humidity | Pressure | Rain* | Wind** | Luminosity | Snow |
|---|---|---|---|---|---|---|---|
| 1787630626 | 35° C | 39% | 1005.1 hPa | 0 mm | - | 0 W/m² | - |
| 1787630320 | 35° C | 33% | 1005.2 hPa | 0 mm | - | 0 W/m² | - |
| 1787630016 | 35° C | 29% | 1005.1 hPa | 0 mm | - | 0 W/m² | - |
| 1787629712 | 35.56° C | 31% | 1005 hPa | 0 mm | - | 0 W/m² | - |
| 1787629407 | 35.56° C | 29% | 1004.9 hPa | 0 mm | - | 0 W/m² | - |
| 1787629103 | 35.56° C | 28% | 1004.9 hPa | 0 mm | - | 0 W/m² | - |
| 1787628798 | 35.56° C | 28% | 1004.8 hPa | 0 mm | - | 0 W/m² | - |
| 1787628494 | 35.56° C | 27% | 1004.9 hPa | 0 mm | - | 0 W/m² | - |
| 1787628188 | 36.11° C | 26% | 1004.8 hPa | 0 mm | - | 0 W/m² | - |
| 1787627884 | 36.11° C | 27% | 1004.6 hPa | 0 mm | - | 0 W/m² | - |
| 1787627579 | 36.67° C | 26% | 1004.6 hPa | 0 mm | - | 0 W/m² | - |
| 1787627274 | 36.67° C | 25% | 1004.8 hPa | 0 mm | - | 0 W/m² | - |
| 1787626971 | 36.67° C | 25% | 1004.7 hPa | 0 mm | - | 0 W/m² | - |
| 1787626670 | 37.22° C | 25% | 1004.6 hPa | 0 mm | - | 0 W/m² | - |
| 1787626366 | 37.22° C | 24% | 1004.5 hPa | 0 mm | - | 0 W/m² | - |
| 1787626064 | 37.22° C | 24% | 1004.4 hPa | 0 mm | - | 0 W/m² | - |
| 1787625761 | 37.78° C | 25% | 1004.3 hPa | 0 mm | - | 0 W/m² | - |
| 1787625456 | 37.78° C | 23% | 1004.2 hPa | 0 mm | - | 0 W/m² | - |
| 1787625153 | 37.78° C | 23% | 1004.2 hPa | 0 mm | - | 0 W/m² | - |
| 1787624848 | 37.78° C | 22% | 1004.1 hPa | 0 mm | - | 0 W/m² | - |
| 1787624548 | 38.33° C | 22% | 1004.3 hPa | 0 mm | - | 0 W/m² | - |
| 1787624244 | 38.33° C | 22% | 1004.1 hPa | 0 mm | - | 0 W/m² | - |
| 1787623939 | 38.33° C | 21% | 1004 hPa | 0 mm | - | 1 W/m² | - |
| 1787623638 | 38.89° C | 21% | 1004.1 hPa | 0 mm | - | 2 W/m² | - |
| 1787623333 | 38.89° C | 21% | 1004.1 hPa | 0 mm | - | 3 W/m² | - |
* Rain latest hour (hover to see other rain measurements)
** Current wind speed in m/s (hover to see current wind gust speed)